Time,TemperatureF,DewpointF,PressureIn,WindDirection,WindDirectionDegrees,WindSpeedMPH,WindSpeedGustMPH,Humidity,HourlyPrecipIn,Conditions,Clouds,dailyrainin,SolarRadiationWatts/m^2,SoftwareType,DateUTC
2013-06-12 00:02:00,47.0,34.0,-100.00,NW,312,7.0,13.0,60,0.00,,,0.00,11.600000,,2013-06-12 08:02:00,
2013-06-12 00:12:00,47.0,34.0,-100.00,NW,312,7.0,13.0,60,0.00,,,0.00,11.600000,,2013-06-12 08:12:00,
2013-06-12 00:22:00,47.0,34.0,-100.00,NW,312,7.0,13.0,60,0.00,,,0.00,11.600000,,2013-06-12 08:22:00,
2013-06-12 00:33:00,47.0,34.0,-100.00,NW,312,7.0,13.0,60,0.00,,,0.00,11.600000,,2013-06-12 08:33:00,
2013-06-12 01:11:00,47.0,34.0,-100.00,WNW,291,8.0,10.0,62,0.00,,,0.00,0.700000,,2013-06-12 09:11:00,
2013-06-12 01:22:00,47.0,34.0,-100.00,WNW,291,8.0,10.0,62,0.00,,,0.00,0.700000,,2013-06-12 09:22:00,
2013-06-12 01:33:00,47.0,34.0,-100.00,WNW,291,8.0,10.0,62,0.00,,,0.00,0.700000,,2013-06-12 09:33:00,
2013-06-12 01:42:00,47.0,34.0,-100.00,WNW,291,8.0,10.0,62,0.00,,,0.00,0.700000,,2013-06-12 09:42:00,
2013-06-12 01:43:00,45.0,34.0,-100.00,West,261,6.0,12.0,64,0.00,,,0.00,0.000000,,2013-06-12 09:43:00,
2013-06-12 02:11:00,45.0,34.0,-100.00,West,261,6.0,12.0,64,0.00,,,0.00,0.000000,,2013-06-12 10:11:00,
2013-06-12 02:23:00,45.0,34.0,-100.00,West,261,6.0,12.0,64,0.00,,,0.00,0.000000,,2013-06-12 10:23:00,
2013-06-12 02:33:00,45.0,34.0,-100.00,West,261,6.0,12.0,64,0.00,,,0.00,0.000000,,2013-06-12 10:33:00,
2013-06-12 03:02:00,46.0,34.0,-100.00,WNW,292,7.0,9.0,64,0.00,,,0.00,0.000000,,2013-06-12 11:02:00,
2013-06-12 03:12:00,46.0,34.0,-100.00,WNW,292,7.0,9.0,64,0.00,,,0.00,0.000000,,2013-06-12 11:12:00,
2013-06-12 03:24:00,46.0,34.0,-100.00,WNW,292,7.0,9.0,64,0.00,,,0.00,0.000000,,2013-06-12 11:24:00,
2013-06-12 03:33:00,46.0,34.0,-100.00,WNW,292,7.0,9.0,64,0.00,,,0.00,0.000000,,2013-06-12 11:33:00,
2013-06-12 03:42:00,46.0,34.0,-100.00,WNW,292,7.0,9.0,64,0.00,,,0.00,0.000000,,2013-06-12 11:42:00,
2013-06-12 04:01:00,45.0,34.0,-100.00,WNW,290,7.0,10.0,65,0.00,,,0.00,0.000000,,2013-06-12 12:01:00,
2013-06-12 04:11:00,45.0,34.0,-100.00,WNW,290,7.0,10.0,65,0.00,,,0.00,0.000000,,2013-06-12 12:11:00,
2013-06-12 04:23:00,45.0,34.0,-100.00,WNW,290,7.0,10.0,65,0.00,,,0.00,0.000000,,2013-06-12 12:23:00,
2013-06-12 04:33:00,45.0,34.0,-100.00,WNW,290,7.0,10.0,65,0.00,,,0.00,0.000000,,2013-06-12 12:33:00,
2013-06-12 04:42:00,45.0,34.0,-100.00,WNW,290,7.0,10.0,65,0.00,,,0.00,0.000000,,2013-06-12 12:42:00,
2013-06-12 04:43:00,45.0,34.0,-100.00,NW,306,7.0,9.0,65,0.00,,,0.00,3.200000,,2013-06-12 12:43:00,
2013-06-12 05:12:00,45.0,34.0,-100.00,NW,306,7.0,9.0,65,0.00,,,0.00,3.200000,,2013-06-12 13:12:00,
2013-06-12 05:22:00,45.0,34.0,-100.00,NW,306,7.0,9.0,65,0.00,,,0.00,3.200000,,2013-06-12 13:22:00,
2013-06-12 05:32:00,45.0,34.0,-100.00,NW,306,7.0,9.0,65,0.00,,,0.00,3.200000,,2013-06-12 13:32:00,
2013-06-12 05:43:00,46.0,34.0,-100.00,WNW,285,6.0,10.0,62,0.00,,,0.00,39.799999,,2013-06-12 13:43:00,
2013-06-12 06:11:00,46.0,34.0,-100.00,WNW,285,6.0,10.0,62,0.00,,,0.00,39.799999,,2013-06-12 14:11:00,
2013-06-12 06:23:00,46.0,34.0,-100.00,WNW,285,6.0,10.0,62,0.00,,,0.00,39.799999,,2013-06-12 14:23:00,
2013-06-12 06:33:00,46.0,34.0,-100.00,WNW,285,6.0,10.0,62,0.00,,,0.00,39.799999,,2013-06-12 14:33:00,
2013-06-12 06:43:00,48.0,34.0,-100.00,WSW,249,4.0,7.0,59,0.00,,,0.00,157.500000,,2013-06-12 14:43:00,
2013-06-12 07:01:00,48.0,34.0,-100.00,WSW,249,4.0,7.0,59,0.00,,,0.00,157.500000,,2013-06-12 15:01:00,
2013-06-12 07:12:00,48.0,34.0,-100.00,WSW,249,4.0,7.0,59,0.00,,,0.00,157.500000,,2013-06-12 15:12:00,
2013-06-12 07:23:00,48.0,34.0,-100.00,WSW,249,4.0,7.0,59,0.00,,,0.00,157.500000,,2013-06-12 15:23:00,
2013-06-12 07:32:00,48.0,34.0,-100.00,WSW,249,4.0,7.0,59,0.00,,,0.00,157.500000,,2013-06-12 15:32:00,
2013-06-12 07:43:00,49.0,34.0,-100.00,West,263,4.0,5.0,55,0.00,,,0.00,291.500000,,2013-06-12 15:43:00,
2013-06-12 08:01:00,49.0,34.0,-100.00,West,263,4.0,5.0,55,0.00,,,0.00,291.500000,,2013-06-12 16:01:00,
2013-06-12 08:11:00,49.0,34.0,-100.00,West,263,4.0,5.0,55,0.00,,,0.00,291.500000,,2013-06-12 16:11:00,
2013-06-12 08:21:00,49.0,34.0,-100.00,West,263,4.0,5.0,55,0.00,,,0.00,291.500000,,2013-06-12 16:21:00,
2013-06-12 08:32:00,49.0,34.0,-100.00,West,263,4.0,5.0,55,0.00,,,0.00,291.500000,,2013-06-12 16:32:00,
2013-06-12 09:01:00,51.0,33.0,-100.00,NW,312,3.0,6.0,51,0.00,,,0.00,389.799988,,2013-06-12 17:01:00,
2013-06-12 09:11:00,51.0,33.0,-100.00,NW,312,3.0,6.0,51,0.00,,,0.00,389.799988,,2013-06-12 17:11:00,
2013-06-12 09:22:00,51.0,33.0,-100.00,NW,312,3.0,6.0,51,0.00,,,0.00,389.799988,,2013-06-12 17:22:00,
2013-06-12 09:33:00,51.0,33.0,-100.00,NW,312,3.0,6.0,51,0.00,,,0.00,389.799988,,2013-06-12 17:33:00,
2013-06-12 09:42:00,51.0,33.0,-100.00,NW,312,3.0,6.0,51,0.00,,,0.00,389.799988,,2013-06-12 17:42:00,
2013-06-12 09:43:00,56.0,34.0,-100.00,West,261,1.0,5.0,43,0.00,,,0.00,598.000000,,2013-06-12 17:43:00,
2013-06-12 10:02:00,56.0,34.0,-100.00,West,261,1.0,5.0,43,0.00,,,0.00,598.000000,,2013-06-12 18:02:00,
2013-06-12 10:12:00,56.0,34.0,-100.00,West,261,1.0,5.0,43,0.00,,,0.00,598.000000,,2013-06-12 18:12:00,
2013-06-12 10:22:00,56.0,34.0,-100.00,West,261,1.0,5.0,43,0.00,,,0.00,598.000000,,2013-06-12 18:22:00,
2013-06-12 10:32:00,56.0,34.0,-100.00,West,261,1.0,5.0,43,0.00,,,0.00,598.000000,,2013-06-12 18:32:00,
2013-06-12 11:01:00,53.0,32.0,-100.00,SE,144,3.0,4.0,44,0.00,,,0.00,734.799988,,2013-06-12 19:01:00,
2013-06-12 11:11:00,53.0,32.0,-100.00,SE,144,3.0,4.0,44,0.00,,,0.00,734.799988,,2013-06-12 19:11:00,
2013-06-12 11:22:00,53.0,32.0,-100.00,SE,144,3.0,4.0,44,0.00,,,0.00,734.799988,,2013-06-12 19:22:00,
2013-06-12 11:32:00,53.0,32.0,-100.00,SE,144,3.0,4.0,44,0.00,,,0.00,734.799988,,2013-06-12 19:32:00,
2013-06-12 11:42:00,53.0,32.0,-100.00,SE,144,3.0,4.0,44,0.00,,,0.00,734.799988,,2013-06-12 19:42:00,
2013-06-12 12:01:00,54.0,33.0,-100.00,ESE,119,3.0,4.0,44,0.00,,,0.00,854.000000,,2013-06-12 20:01:00,
2013-06-12 12:11:00,54.0,33.0,-100.00,ESE,119,3.0,4.0,44,0.00,,,0.00,854.000000,,2013-06-12 20:11:00,
2013-06-12 12:21:00,54.0,33.0,-100.00,ESE,119,3.0,4.0,44,0.00,,,0.00,854.000000,,2013-06-12 20:21:00,
2013-06-12 12:32:00,54.0,33.0,-100.00,ESE,119,3.0,4.0,44,0.00,,,0.00,854.000000,,2013-06-12 20:32:00,
2013-06-12 12:42:00,54.0,33.0,-100.00,ESE,119,3.0,4.0,44,0.00,,,0.00,854.000000,,2013-06-12 20:42:00,
2013-06-12 12:43:00,56.0,33.0,-100.00,NE,37,2.0,5.0,42,0.00,,,0.00,939.099976,,2013-06-12 20:43:00,
2013-06-12 13:01:00,56.0,33.0,-100.00,NE,37,2.0,5.0,42,0.00,,,0.00,939.099976,,2013-06-12 21:01:00,
2013-06-12 13:11:00,56.0,33.0,-100.00,NE,37,2.0,5.0,42,0.00,,,0.00,939.099976,,2013-06-12 21:11:00,
2013-06-12 13:21:00,56.0,33.0,-100.00,NE,37,2.0,5.0,42,0.00,,,0.00,939.099976,,2013-06-12 21:21:00,
2013-06-12 13:33:00,56.0,33.0,-100.00,NE,37,2.0,5.0,42,0.00,,,0.00,939.099976,,2013-06-12 21:33:00,
2013-06-12 13:43:00,56.0,33.0,-100.00,SSE,155,3.0,4.0,42,0.00,,,0.00,990.500000,,2013-06-12 21:43:00,
2013-06-12 14:01:00,56.0,33.0,-100.00,SSE,155,3.0,4.0,42,0.00,,,0.00,990.500000,,2013-06-12 22:01:00,
2013-06-12 14:11:00,56.0,33.0,-100.00,SSE,155,3.0,4.0,42,0.00,,,0.00,990.500000,,2013-06-12 22:11:00,
2013-06-12 14:22:00,56.0,33.0,-100.00,SSE,155,3.0,4.0,42,0.00,,,0.00,990.500000,,2013-06-12 22:22:00,
2013-06-12 14:32:00,56.0,33.0,-100.00,SSE,155,3.0,4.0,42,0.00,,,0.00,990.500000,,2013-06-12 22:32:00,
2013-06-12 15:01:00,55.0,30.0,-100.00,SSE,153,4.0,4.0,39,0.00,,,0.00,1001.299988,,2013-06-12 23:01:00,
2013-06-12 15:11:00,55.0,30.0,-100.00,SSE,153,4.0,4.0,39,0.00,,,0.00,1001.299988,,2013-06-12 23:11:00,
2013-06-12 15:22:00,55.0,30.0,-100.00,SSE,153,4.0,4.0,39,0.00,,,0.00,1001.299988,,2013-06-12 23:22:00,
2013-06-12 15:32:00,55.0,30.0,-100.00,SSE,153,4.0,4.0,39,0.00,,,0.00,1001.299988,,2013-06-12 23:32:00,
2013-06-12 15:42:00,55.0,30.0,-100.00,SSE,153,4.0,4.0,39,0.00,,,0.00,1001.299988,,2013-06-12 23:42:00,
2013-06-12 16:01:00,56.0,30.0,-100.00,SSE,159,4.0,7.0,37,0.00,,,0.00,1017.299988,,2013-06-13 00:01:00,
2013-06-12 16:11:00,56.0,30.0,-100.00,SSE,159,4.0,7.0,37,0.00,,,0.00,1017.299988,,2013-06-13 00:11:00,
2013-06-12 16:22:00,56.0,30.0,-100.00,SSE,159,4.0,7.0,37,0.00,,,0.00,1017.299988,,2013-06-13 00:22:00,
2013-06-12 16:32:00,56.0,30.0,-100.00,SSE,159,4.0,7.0,37,0.00,,,0.00,1017.299988,,2013-06-13 00:32:00,
2013-06-12 16:42:00,56.0,30.0,-100.00,SSE,159,4.0,7.0,37,0.00,,,0.00,1017.299988,,2013-06-13 00:42:00,
2013-06-12 17:01:00,59.0,29.0,-100.00,SE,134,2.0,7.0,32,0.00,,,0.00,869.500000,,2013-06-13 01:01:00,
2013-06-12 17:12:00,59.0,29.0,-100.00,SE,134,2.0,7.0,32,0.00,,,0.00,869.500000,,2013-06-13 01:12:00,
2013-06-12 17:22:00,59.0,29.0,-100.00,SE,134,2.0,7.0,32,0.00,,,0.00,869.500000,,2013-06-13 01:22:00,
2013-06-12 17:32:00,59.0,29.0,-100.00,SE,134,2.0,7.0,32,0.00,,,0.00,869.500000,,2013-06-13 01:32:00,
2013-06-12 17:42:00,59.0,29.0,-100.00,SE,134,2.0,7.0,32,0.00,,,0.00,869.500000,,2013-06-13 01:42:00,
2013-06-12 18:01:00,55.0,32.0,-100.00,SSE,163,4.0,4.0,41,0.00,,,0.00,823.400024,,2013-06-13 02:01:00,
2013-06-12 18:11:00,55.0,32.0,-100.00,SSE,163,4.0,4.0,41,0.00,,,0.00,823.400024,,2013-06-13 02:11:00,
2013-06-12 18:22:00,55.0,32.0,-100.00,SSE,163,4.0,4.0,41,0.00,,,0.00,823.400024,,2013-06-13 02:22:00,
2013-06-12 18:33:00,55.0,32.0,-100.00,SSE,163,4.0,4.0,41,0.00,,,0.00,823.400024,,2013-06-13 02:33:00,
2013-06-12 18:42:00,55.0,32.0,-100.00,SSE,163,4.0,4.0,41,0.00,,,0.00,823.400024,,2013-06-13 02:42:00,
2013-06-12 19:01:00,52.0,30.0,-100.00,SSE,161,8.0,9.0,42,0.00,,,0.00,607.900024,,2013-06-13 03:01:00,
2013-06-12 19:11:00,52.0,30.0,-100.00,SSE,161,8.0,9.0,42,0.00,,,0.00,607.900024,,2013-06-13 03:11:00,
2013-06-12 19:22:00,52.0,30.0,-100.00,SSE,161,8.0,9.0,42,0.00,,,0.00,607.900024,,2013-06-13 03:22:00,
2013-06-12 19:33:00,52.0,30.0,-100.00,SSE,161,8.0,9.0,42,0.00,,,0.00,607.900024,,2013-06-13 03:33:00,
2013-06-12 19:42:00,52.0,30.0,-100.00,SSE,161,8.0,9.0,42,0.00,,,0.00,607.900024,,2013-06-13 03:42:00,
2013-06-12 19:43:00,51.0,29.0,-100.00,SSE,165,10.0,11.0,44,0.00,,,0.00,509.299988,,2013-06-13 03:43:00,
2013-06-12 20:01:00,51.0,29.0,-100.00,SSE,165,10.0,11.0,44,0.00,,,0.00,509.299988,,2013-06-13 04:01:00,
2013-06-12 20:11:00,51.0,29.0,-100.00,SSE,165,10.0,11.0,44,0.00,,,0.00,509.299988,,2013-06-13 04:11:00,
2013-06-12 20:22:00,51.0,29.0,-100.00,SSE,165,10.0,11.0,44,0.00,,,0.00,509.299988,,2013-06-13 04:22:00,
2013-06-12 20:32:00,51.0,29.0,-100.00,SSE,165,10.0,11.0,44,0.00,,,0.00,509.299988,,2013-06-13 04:32:00,
2013-06-12 21:02:00,50.0,28.0,-100.00,SSE,157,9.0,13.0,41,0.00,,,0.00,362.200012,,2013-06-13 05:02:00,
2013-06-12 21:11:00,50.0,28.0,-100.00,SSE,157,9.0,13.0,41,0.00,,,0.00,362.200012,,2013-06-13 05:11:00,
2013-06-12 21:23:00,50.0,28.0,-100.00,SSE,157,9.0,13.0,41,0.00,,,0.00,362.200012,,2013-06-13 05:23:00,
2013-06-12 21:32:00,50.0,28.0,-100.00,SSE,157,9.0,13.0,41,0.00,,,0.00,362.200012,,2013-06-13 05:32:00,
2013-06-12 21:42:00,50.0,28.0,-100.00,SSE,157,9.0,13.0,41,0.00,,,0.00,362.200012,,2013-06-13 05:42:00,
2013-06-12 21:43:00,50.0,28.0,-100.00,SSE,164,9.0,13.0,42,0.00,,,0.00,216.100006,,2013-06-13 05:43:00,
2013-06-12 22:02:00,50.0,28.0,-100.00,SSE,164,9.0,13.0,42,0.00,,,0.00,216.100006,,2013-06-13 06:02:00,
2013-06-12 22:11:00,50.0,28.0,-100.00,SSE,164,9.0,13.0,42,0.00,,,0.00,216.100006,,2013-06-13 06:11:00,
2013-06-12 22:22:00,50.0,28.0,-100.00,SSE,164,9.0,13.0,42,0.00,,,0.00,216.100006,,2013-06-13 06:22:00,
2013-06-12 22:33:00,50.0,28.0,-100.00,SSE,164,9.0,13.0,42,0.00,,,0.00,216.100006,,2013-06-13 06:33:00,
2013-06-12 23:01:00,49.0,28.0,-100.00,SSE,154,7.0,12.0,43,0.00,,,0.00,91.300003,,2013-06-13 07:01:00,
2013-06-12 23:11:00,49.0,28.0,-100.00,SSE,154,7.0,12.0,43,0.00,,,0.00,91.300003,,2013-06-13 07:11:00,
2013-06-12 23:22:00,49.0,28.0,-100.00,SSE,154,7.0,12.0,43,0.00,,,0.00,91.300003,,2013-06-13 07:22:00,
2013-06-12 23:33:00,49.0,28.0,-100.00,SSE,154,7.0,12.0,43,0.00,,,0.00,91.300003,,2013-06-13 07:33:00,
2013-06-12 23:42:00,49.0,28.0,-100.00,SSE,154,7.0,12.0,43,0.00,,,0.00,91.300003,,2013-06-13 07:42:00,